Weather History for Batman, Turkey

Change the Weather History Date:

Wednesday, June 26, 2013

  Actual Average (LTCC) Record (LTCC)
Temperature  
Mean Temperature 80 °F -  
Max Temperature 102 °F 94 °F 102 °F (2002)
Min Temperature 59 °F 66 °F 64 °F (1999)
Cooling Degree Days 16    
Growing Degree Days 30 (Base 50)    
Moisture  
Dew Point 44 °F    
Average Humidity 31    
Maximum Humidity 72    
Minimum Humidity 10    
Precipitation  
Precipitation 0.00 in - - ()
Sea Level Pressure  
Sea Level Pressure 29.68 in    
Wind  
Wind Speed 4 mph ()    
Max Wind Speed 9 mph    
Max Gust Speed -    
Visibility 6.2 miles    
Events      
Averages and records for this station are not official NWS values.
T = Trace of Precipitation, MM = Missing Value Source: Averaged Metar Reports

Daily Weather History Graph

Daily Weather History Graph

Search for Another Location

Airport:

Trip Planner

Search our weather history database for the weather conditions in past years. The results will help you decide how hot, cold, wet, or windy it might be!

Date:

Astronomy

Jun. 26, 2013 Rise Set
Actual Time 4:54 AM EEST 7:41 PM EEST
Civil Twilight 4:23 AM EEST 8:13 PM EEST
Nautical Twilight 3:43 AM EEST 8:52 PM EEST
Astronomical Twilight 2:59 AM EEST 9:37 PM EEST
Moon 9:56 PM EEST (6/26) 8:17 AM EEST (6/26)
Length of Visible Light 15h 49m
Length of Day
14h 47m
Waning Gibbous, 88% of the Moon is Illuminated
Jun 26
Waning Gibbous
Jun 30
Last Quarter
Jul 8
New
Jul 16
First Quarter
Jul 22
Full

Hourly Weather History & Observations

Time (EEST) Temp. Heat Index Dew Point Humidity Pressure Visibility Wind Dir Wind Speed Gust Speed Precip Events Conditions
12:20 AM 71.6 °F - 41.0 °F 33% 29.65 in - South 6.9 mph - N/A   Clear
12:50 AM 71.6 °F - 39.2 °F 31% 29.68 in - Variable 1.2 mph - N/A   Clear
1:20 AM 71.6 °F - 39.2 °F 31% 29.68 in - Variable 1.2 mph - N/A   Clear
1:50 AM 69.8 °F - 41.0 °F 35% 29.68 in - Calm Calm - N/A   Clear
2:20 AM 69.8 °F - 39.2 °F 33% 29.65 in - Variable 2.3 mph - N/A   Clear
2:50 AM 64.4 °F - 44.6 °F 49% 29.68 in - North 2.3 mph - N/A   Clear
3:20 AM 60.8 °F - 50.0 °F 68% 29.68 in - NE 6.9 mph - N/A   Clear
3:50 AM 62.6 °F - 44.6 °F 52% 29.68 in - NNE 4.6 mph - N/A   Clear
4:20 AM 59.0 °F - 50.0 °F 72% 29.68 in - North 4.6 mph - N/A   Clear
4:50 AM 60.8 °F - 50.0 °F 68% 29.68 in - NE 5.8 mph - N/A   Clear
5:20 AM 60.8 °F - 50.0 °F 68% 29.68 in - North 5.8 mph - N/A   Clear
5:50 AM 62.6 °F - 51.8 °F 68% 29.71 in - NNE 5.8 mph - N/A   Clear
6:20 AM 68.0 °F - 46.4 °F 46% 29.71 in - NNE 3.5 mph - N/A   Clear
6:50 AM 73.4 °F - 41.0 °F 31% 29.71 in - Variable 2.3 mph - N/A   Clear
7:20 AM 71.6 °F - 42.8 °F 35% 29.71 in - Variable 2.3 mph - N/A   Clear
7:50 AM 75.2 °F - 44.6 °F 34% 29.71 in - West 3.5 mph - N/A   Clear
8:20 AM 78.8 °F - 46.4 °F 32% 29.71 in - WSW 5.8 mph - N/A   Clear
8:50 AM 80.6 °F - 44.6 °F 28% 29.71 in - SW 6.9 mph - N/A   Clear
9:20 AM 84.2 °F - 44.6 °F 25% 29.71 in - SW 6.9 mph - N/A   Clear
9:50 AM 87.8 °F - 46.4 °F 24% 29.71 in - WSW 4.6 mph - N/A   Clear
10:20 AM 91.4 °F - 50.0 °F 24% 29.71 in - WSW 5.8 mph - N/A   Clear
10:50 AM 95.0 °F - 42.8 °F 16% 29.71 in - North 8.1 mph - N/A   Clear
11:20 AM 95.0 °F - 44.6 °F 18% 29.71 in - NNW 9.2 mph - N/A   Clear
11:50 AM 96.8 °F - 39.2 °F 14% 29.68 in - North 9.2 mph - N/A   Clear
12:20 PM 96.8 °F - 42.8 °F 16% 29.68 in 6.2 mi NW 8.1 mph - N/A   Partly Cloudy
12:50 PM 98.6 °F - 35.6 °F 11% 29.68 in 6.2 mi NNW 6.9 mph - N/A   Partly Cloudy
1:20 PM 98.6 °F - 33.8 °F 10% 29.68 in 6.2 mi NNW 4.6 mph - N/A   Partly Cloudy
1:50 PM 100.4 °F - 35.6 °F 11% 29.68 in 6.2 mi Variable 5.8 mph - N/A   Partly Cloudy
2:20 PM 100.4 °F - 35.6 °F 11% 29.65 in 6.2 mi WNW 5.8 mph - N/A   Partly Cloudy
2:50 PM 100.4 °F - 35.6 °F 11% 29.65 in 6.2 mi West 6.9 mph - N/A   Partly Cloudy
3:20 PM 100.4 °F - 35.6 °F 11% 29.65 in 6.2 mi WSW 5.8 mph - N/A   Partly Cloudy
3:50 PM 102.2 °F - 35.6 °F 10% 29.65 in 6.2 mi West 4.6 mph - N/A   Partly Cloudy
4:20 PM 102.2 °F - 37.4 °F 11% 29.65 in 6.2 mi Variable 3.5 mph - N/A   Partly Cloudy
4:50 PM 100.4 °F - 37.4 °F 11% 29.65 in 6.2 mi SW 6.9 mph - N/A   Partly Cloudy
5:20 PM 98.6 °F - 44.6 °F 16% 29.65 in 6.2 mi SSW 6.9 mph - N/A   Partly Cloudy
5:50 PM 98.6 °F - 42.8 °F 15% 29.65 in - SSW 6.9 mph - N/A   Clear
6:20 PM 96.8 °F - 42.8 °F 16% 29.65 in - SW 4.6 mph - N/A   Clear
6:50 PM 95.0 °F - 50.0 °F 22% 29.65 in - Variable 2.3 mph - N/A   Clear
7:20 PM 91.4 °F 89.1 °F 53.6 °F 28% 29.65 in - West 4.6 mph - N/A   Clear
7:50 PM 87.8 °F - 48.2 °F 25% 29.65 in - NE 3.5 mph - N/A   Clear
8:20 PM 82.4 °F - 48.2 °F 30% 29.65 in - NNE 3.5 mph - N/A   Clear
8:50 PM 78.8 °F - 53.6 °F 42% 29.68 in - NNE 4.6 mph - N/A   Clear
9:20 PM 78.8 °F - 48.2 °F 34% 29.68 in - East 6.9 mph - N/A   Clear
9:50 PM 80.6 °F - 44.6 °F 28% 29.68 in - ENE 5.8 mph - N/A   Clear
10:20 PM 73.4 °F - 51.8 °F 47% 29.68 in - NNE 3.5 mph - N/A   Clear
10:50 PM 73.4 °F - 53.6 °F 50% 29.68 in - North 4.6 mph - N/A   Clear
11:20 PM 73.4 °F - 50.0 °F 44% 29.68 in - ENE 4.6 mph - N/A   Clear
11:50 PM 73.4 °F - 55.4 °F 53% 29.68 in - Variable 2.3 mph - N/A   Clear